Wind_Speed
21 21 22 22 23 23 23 24 24 26 26 27 27 28 27 26 25 24 24 24 24 25 26 26 25 25 25 25 25 25 25 26 26 26 25 25 25 24
21 22 22 22 22 22 23 24 24 25 26 27 27 27 28 27 26 25 24 23 24 25 25 25 25 25 25 25 25 25 25 25 25 26 26 26 26 26
21 22 22 22 22 22 22 23 23 23 24 26 26 26 27 28 27 26 25 24 24 24 25 25 25 25 25 25 25 26 25 25 25 26 26 27 27 27
21 21 21 21 21 21 21 21 22 21 22 24 25 26 27 28 28 28 27 26 25 25 25 25 25 25 25 25 25 25 25 25 26 26 26 27 27 27
21 21 21 22 21 22 21 21 21 21 22 23 24 25 27 28 27 29 29 29 28 26 26 25 25 24 24 24 24 25 25 25 25 26 26 26 27 27
21 21 21 22 22 22 21 21 21 21 21 21 22 23 25 27 28 28 30 31 31 29 28 27 26 25 25 24 25 25 25 25 25 25 26 26 27 27
21 21 20 21 22 22 22 22 21 22 22 21 21 22 24 26 28 29 30 32 32 31 31 30 28 27 27 26 26 26 26 26 26 26 26 27 27 28
21 21 21 21 21 22 22 22 21 21 21 21 22 22 23 24 25 27 29 32 33 33 32 32 31 31 31 30 29 29 28 28 28 28 28 29 29 29
21 21 21 21 21 22 22 22 22 22 22 22 22 21 21 22 22 23 26 28 31 32 33 34 34 34 34 33 32 32 31 31 31 31 31 31 31 31
21 21 22 22 21 21 21 21 22 22 22 22 23 23 22 22 23 23 23 25 27 30 32 34 35 36 37 36 36 35 35 35 35 35 34 34 34 34
22 22 22 21 21 21 21 21 21 22 22 23 23 22 22 22 22 23 24 24 25 28 30 31 33 35 36 37 38 38 39 39 38 38 38 38 38 38
22 21 21 21 20 20 20 20 21 21 21 22 22 22 22 22 22 22 23 24 24 26 28 29 31 34 35 36 37 38 39 40 41 41 41 41 41 41
21 21 20 20 21 20 20 20 20 20 20 21 21 21 21 21 22 22 23 24 25 26 27 28 29 31 33 34 35 36 38 39 40 41 42 42 43 43
19 19 19 20 20 20 20 20 20 20 19 20 20 20 21 21 21 22 23 24 25 26 27 28 29 30 31 32 33 35 36 37 38 39 40 41 43 44
16 17 17 18 19 18 19 19 19 19 19 20 20 20 21 21 21 22 23 24 25 26 27 28 29 29 30 32 33 34 35 36 37 38 39 40 41 43
13 13 14 15 15 16 16 16 17 17 17 18 18 19 20 20 21 21 22 23 24 25 27 28 29 30 31 32 33 34 36 37 38 39 39 40 41 42
9 10 11 11 12 12 13 13 14 15 15 16 16 17 18 19 20 21 22 23 24 25 26 27 28 29 31 32 34 35 36 36 37 39 40 41 42 43
5 5 6 7 7 8 9 9 10 11 12 13 14 15 16 18 19 20 21 22 23 24 26 27 29 30 31 33 35 36 37 38 39 40 41 42 43 44
4 3 3 3 3 3 4 5 6 7 8 9 10 12 13 15 16 17 19 20 22 24 25 27 28 29 31 33 34 36 38 39 40 41 42 43 44 45
7 7 6 6 5 3 3 2 3 4 5 6 7 9 10 12 14 15 17 19 20 22 24 25 27 28 30 32 33 35 37 38 39 40 41 43 44 44
13 11 10 9 8 7 6 6 5 5 5 5 6 7 9 10 11 12 14 16 18 19 21 23 24 26 27 29 30 32 34 36 37 38 40 41 42 43
16 15 14 13 12 11 10 9 9 8 8 7 7 7 8 9 10 11 12 14 15 17 18 20 21 23 24 26 28 29 31 33 35 36 37 38 39 40
17 17 16 15 14 13 13 12 11 11 10 10 9 9 9 9 9 10 11 12 13 15 16 17 18 20 21 23 24 26 27 29 30 32 33 34 36 37
Wind_Direction
271 270 271 271 271 272 271 271 271 268 263 259 253 247 247 248 248 250 250 248 246 244 243 242 242 243 243 244 244 244 244 244 244 244 244 245 244 243
270 269 269 270 271 271 271 270 272 269 260 257 252 249 247 247 246 247 248 246 244 243 242 242 243 244 245 245 245 244 245 245 245 245 245 245 245 246
271 270 269 269 270 269 271 269 270 269 260 254 252 250 249 245 244 246 245 245 244 242 243 244 244 245 246 247 247 248 247 247 247 246 246 247 248 248
270 269 267 267 268 268 268 267 267 268 262 255 253 251 250 246 244 245 244 244 244 242 243 243 244 246 247 248 249 249 248 249 249 248 248 248 249 250
270 268 266 265 266 266 265 264 265 266 263 260 254 253 250 246 244 244 243 242 242 243 243 244 245 246 248 248 249 249 249 250 250 251 251 251 251 252
270 269 267 265 265 264 263 263 264 264 263 262 257 253 250 247 246 245 244 243 243 244 244 245 246 247 248 248 249 249 250 251 251 251 252 252 252 253
270 270 268 267 265 264 263 262 264 262 262 262 261 256 252 248 247 247 244 242 242 243 244 245 246 247 248 249 250 251 251 252 252 253 254 254 254 254
271 271 271 270 268 265 263 261 262 261 259 260 261 260 255 252 251 248 246 243 242 243 244 245 247 249 249 250 251 252 253 254 255 255 256 256 256 256
272 271 271 270 269 266 263 261 260 260 260 260 261 262 260 259 256 254 249 247 244 243 244 246 248 250 251 251 252 253 254 255 256 257 258 258 258 258
271 271 271 270 268 266 264 262 261 260 260 260 260 261 262 262 262 261 259 254 250 248 249 249 249 250 251 252 254 254 255 256 257 258 258 259 259 260
271 270 270 268 268 266 264 263 263 261 261 260 261 261 262 263 263 262 260 260 258 255 254 253 252 253 253 253 254 255 256 256 257 258 259 259 260 260
270 269 268 267 267 266 264 263 264 263 262 262 261 261 262 263 264 263 263 262 262 261 259 256 255 255 257 258 258 258 258 258 259 259 260 261 261 260
269 269 268 266 265 264 263 263 263 263 263 262 261 261 262 263 264 264 264 263 263 264 264 263 262 261 261 261 261 260 260 260 260 261 262 262 261 261
269 268 267 266 264 263 263 262 263 262 261 260 261 263 265 265 266 267 266 266 266 266 266 266 266 265 265 265 264 263 263 263 263 263 263 263 263 263
272 270 267 266 265 264 263 263 263 261 262 263 263 265 266 267 268 268 269 269 270 270 270 269 268 268 267 266 266 265 266 267 266 265 265 265 264 263
275 273 271 269 267 266 265 264 263 263 264 265 266 267 268 269 270 271 271 271 272 272 272 272 272 271 270 270 269 268 268 268 268 267 266 266 265 264
279 275 276 275 272 269 266 266 266 266 265 267 269 270 271 272 274 274 275 275 275 275 275 274 274 274 273 272 271 271 271 271 270 269 268 268 267 266
307 295 290 286 278 275 273 271 270 270 270 272 272 273 275 277 277 277 277 278 278 278 278 278 277 276 275 274 274 274 274 273 273 272 271 270 270 269
17 9 356 340 317 296 286 281 283 285 283 283 281 280 282 282 281 282 282 282 282 282 282 282 281 280 280 279 278 276 275 275 274 274 273 272 271 269
50 47 45 44 42 35 25 7 341 324 312 305 301 297 296 295 292 290 289 289 289 288 287 286 286 285 284 283 282 280 279 278 276 276 275 273 272 271
57 57 56 55 54 53 49 42 31 16 1 347 334 325 318 313 309 305 302 301 300 298 296 294 293 291 290 289 287 285 283 281 280 279 278 277 276 274
59 59 60 60 61 60 56 51 44 36 28 17 5 354 343 334 328 323 319 316 313 311 308 304 301 299 298 297 296 292 290 287 285 283 281 280 278 277
58 58 59 59 60 59 57 54 49 43 37 31 23 16 9 2 356 350 346 341 337 332 326 321 317 314 311 308 307 303 300 296 293 289 286 284 283 281
Height
5818 5818 5818 5818 5818 5818 5817 5817 5817 5816 5817 5817 5818 5820 5821 5823 5825 5826 5828 5830 5831 5833 5835 5837 5838 5840 5842 5844 5846 5847 5849 5851 5852 5854 5856 5857 5859 5861
5812 5812 5812 5812 5811 5811 5811 5811 5810 5810 5810 5810 5811 5813 5815 5817 5819 5820 5822 5824 5825 5827 5829 5831 5833 5835 5837 5839 5840 5842 5844 5845 5847 5849 5850 5852 5854 5855
5806 5806 5806 5806 5805 5805 5805 5804 5804 5803 5803 5803 5805 5807 5808 5810 5813 5814 5816 5818 5820 5822 5824 5826 5828 5829 5831 5833 5835 5837 5838 5840 5841 5843 5844 5846 5848 5850
5799 5799 5799 5799 5799 5799 5799 5798 5798 5798 5798 5798 5799 5800 5802 5804 5806 5809 5810 5813 5815 5817 5818 5820 5822 5824 5826 5827 5829 5831 5832 5834 5836 5837 5839 5840 5842 5843
5793 5793 5793 5793 5793 5793 5792 5792 5792 5792 5792 5792 5793 5794 5796 5797 5800 5802 5804 5806 5809 5811 5813 5815 5817 5818 5820 5822 5824 5825 5827 5828 5830 5831 5832 5834 5835 5837
5787 5787 5787 5787 5787 5786 5786 5786 5786 5786 5786 5787 5787 5787 5789 5791 5793 5795 5797 5800 5802 5805 5807 5809 5811 5813 5815 5816 5818 5819 5821 5822 5823 5825 5826 5828 5829 5830
5781 5781 5781 5781 5780 5781 5781 5781 5781 5781 5781 5781 5781 5782 5783 5784 5786 5788 5790 5792 5795 5798 5800 5803 5805 5807 5808 5810 5812 5813 5815 5816 5817 5819 5820 5821 5822 5824
5775 5775 5775 5775 5775 5775 5775 5775 5775 5775 5775 5776 5776 5776 5777 5778 5779 5780 5782 5785 5788 5791 5793 5795 5798 5800 5801 5804 5805 5807 5808 5809 5811 5812 5813 5814 5815 5817
5769 5769 5769 5769 5769 5769 5769 5769 5769 5770 5770 5771 5771 5771 5772 5772 5773 5774 5775 5777 5780 5782 5785 5787 5790 5792 5794 5796 5798 5799 5801 5802 5803 5804 5805 5807 5808 5809
5762 5763 5763 5763 5763 5763 5763 5763 5764 5764 5765 5765 5766 5766 5767 5767 5768 5769 5769 5770 5773 5775 5777 5779 5781 5783 5785 5787 5789 5791 5792 5793 5795 5796 5797 5798 5799 5800
5757 5757 5757 5757 5757 5757 5757 5757 5758 5758 5759 5760 5760 5761 5761 5762 5763 5763 5764 5765 5766 5767 5769 5771 5772 5774 5776 5778 5780 5781 5782 5784 5785 5786 5787 5789 5789 5790
5750 5751 5751 5751 5751 5751 5751 5752 5752 5753 5753 5754 5755 5755 5756 5757 5757 5758 5759 5759 5760 5761 5762 5763 5764 5765 5767 5768 5770 5771 5772 5773 5775 5776 5777 5778 5778 5779
5744 5745 5745 5745 5745 5745 5746 5746 5747 5747 5748 5748 5749 5750 5751 5751 5752 5753 5753 5754 5754 5754 5755 5756 5756 5757 5758 5759 5760 5761 5762 5763 5764 5764 5765 5766 5767 5768
5739 5739 5739 5739 5739 5740 5740 5741 5742 5742 5743 5743 5744 5745 5745 5746 5746 5747 5747 5747 5748 5748 5748 5749 5749 5749 5750 5751 5751 5751 5752 5752 5753 5753 5754 5754 5755 5755
5733 5733 5733 5734 5734 5734 5735 5736 5736 5737 5738 5738 5739 5739 5740 5740 5741 5741 5741 5741 5741 5741 5741 5741 5742 5742 5742 5742 5742 5742 5742 5742 5742 5742 5743 5743 5743 5743
5729 5729 5729 5729 5729 5729 5730 5731 5731 5732 5733 5733 5734 5734 5735 5735 5735 5735 5735 5735 5735 5735 5734 5734 5734 5734 5733 5733 5733 5732 5732 5732 5732 5731 5731 5731 5731 5731
5726 5726 5726 5725 5725 5725 5726 5727 5727 5728 5728 5728 5729 5729 5729 5729 5729 5729 5729 5728 5728 5728 5727 5726 5726 5725 5724 5724 5723 5723 5722 5721 5721 5720 5720 5719 5719 5719
5724 5724 5723 5723 5722 5723 5723 5723 5724 5724 5724 5724 5725 5725 5724 5724 5724 5723 5723 5722 5721 5721 5720 5719 5718 5717 5716 5715 5714 5713 5711 5710 5709 5708 5707 5706 5706 5705
5724 5723 5722 5722 5721 5721 5721 5721 5721 5721 5721 5721 5721 5720 5720 5719 5719 5718 5717 5716 5715 5714 5712 5711 5709 5708 5707 5705 5703 5701 5700 5698 5697 5696 5694 5693 5692 5691
5725 5724 5723 5722 5721 5721 5720 5720 5720 5720 5719 5719 5718 5717 5716 5715 5714 5713 5712 5711 5709 5707 5705 5703 5701 5699 5697 5695 5693 5691 5688 5686 5685 5683 5681 5680 5678 5677
5727 5726 5725 5724 5723 5722 5721 5721 5720 5719 5718 5717 5716 5715 5714 5713 5711 5709 5708 5706 5704 5701 5699 5696 5694 5692 5689 5686 5683 5680 5678 5675 5673 5671 5669 5667 5665 5663
5731 5729 5728 5727 5725 5724 5723 5722 5721 5720 5718 5717 5716 5714 5712 5710 5709 5706 5704 5702 5699 5696 5693 5690 5687 5685 5682 5678 5675 5671 5668 5664 5661 5659 5656 5654 5652 5650
5736 5734 5732 5731 5729 5727 5726 5725 5723 5721 5720 5718 5716 5714 5712 5709 5707 5704 5702 5699 5696 5692 5689 5685 5682 5678 5675 5671 5667 5663 5659 5655 5651 5648 5645 5642 5640 5637